Вернуться в каталог

CZ-4C R/B

АктивенSSO
NORAD 40879·ROCKET BODY·🇨🇳 China

Запущен Aug 27, 2015 с Taiyuan Satellite Launch Center

Loading…

Ближайшие Пролёты (ближайшие 24 часа)

TLE

СвежийSource: Space-Track

Эпоха: Sep 14, 2026, 11:27 UTC

1 40879U 15040B   26257.47739567 -.00000050  00000-0 -30314-5 0  9991
2 40879 100.5751  67.4552 0092790 238.8092 120.3908 13.33328528537867

Отслеживайте CZ-4C R/B в реальном времени с AllMySat

Download on the App Store